User: anonymous   Login
Location: Unspecified
(0.0000°N, 0.0000°E)
Time: 10:25:36
(UTC+00:00)
Language:

STRELA 3 - Orbit

View from above orbital plane
View from above orbital plane
View from above satellite
View from above satellite

Ground track
Ground track

The orbit data is extracted from the following two-line orbital elements,

1 37153U 10043B   17080.87058172 +.00000029 +00000-0 +14467-3 0  9997
2 37153 082.4624 020.2042 0006333 198.3316 161.7539 12.40724240295973
Epoch (UTC): 21 March 2017 20:53:38
Eccentricity: 0.0006333
inclination: 82.4624°
perigee height: 1498 km
apogee height: 1508 km
right ascension of ascending node: 20.2042°
argument of perigee: 198.3316°
revolutions per day: 12.40724240
mean anomaly at epoch: 161.7539°
orbit number at epoch: 29597

The dashed part of the orbit path shows where the satellite is in the earth's shadow,  

DLR